Regional Weather Roundup
Issued by NWS

Home | Current Version | Previous Version | Graphics & Text | Print | Product List | Glossary On
Versions: 1 2 3 4 5 6 7 8 9 10 11 12 13 14 15 16 17 18 19 20 21 22 23 24 25 26 27 28 29 30 31 32 33 34 35 36 37 38 39 40 41 42 43 44 45 46 47 48 49 50
721
ASUS43 KFSD 231810
RWRSD

WEATHER ROUNDUP FOR SOUTH DAKOTA
NATIONAL WEATHER SERVICE SIOUX FALLS SD
100 PM CDT MON APR 23 2018

NOTE: "FAIR" INDICATES FEW OR NO CLOUDS BELOW 12,000 FEET WITH NO
SIGNIFICANT WEATHER AND/OR OBSTRUCTIONS TO VISIBILITY.


SDZ001>005-009-010-012>017-231900-
NORTHWEST AND NORTH CENTRAL SOUTH DAKOTA

CITY           SKY/WX    TMP DP  RH WIND       PRES   REMARKS
BUFFALO          N/A     61  38  42 E25G36    30.05S
FAITH            N/A     62  40  44 SE14G22   30.10F
MOBRIDGE       SUNNY     67  42  40 S10       30.12F
$$

SDZ012>016-024>037-041>051-057-063-072>074-231900-
SOUTHWEST AND SOUTH CENTRAL SOUTH DAKOTA

CITY           SKY/WX    TMP DP  RH WIND       PRES   REMARKS
RAPID CTY ARPT SUNNY     62  41  46 SE15G22   30.08F
PIERRE         SUNNY     67  41  38 S10       30.12F
CUSTER         MOSUNNY   54  34  46 SE16G22   30.09F
ELLSWORTH AFB  SUNNY     63  41  45 SE13      30.07F
PHILIP         SUNNY     65  41  41 SE13G18   30.09F
PINE RIDGE     SUNNY     65  40  39 S10G18    30.08F
SPEARFISH      FAIR      61  41  48 E24G31    30.05F
WINNER         FAIR      65  38  36 SE13G18   30.15F
$$

SDZ004>011-016>023-039-040-231900-
NORTHEAST SOUTH DAKOTA

CITY           SKY/WX    TMP DP  RH WIND       PRES   REMARKS
ABERDEEN       SUNNY     69  36  29 VRB5      30.17F
WATERTOWN      SUNNY     63  35  35 CALM      30.18F
BROOKINGS      SUNNY     62  38  40 N6        30.19F
SISSETON         N/A     69  38  32 NW7       30.16F
$$

SDZ017-020-022-023-036>040-048>070-231900-
SOUTHEAST SOUTH DAKOTA

CITY           SKY/WX    TMP DP  RH WIND       PRES   REMARKS
SIOUX FALLS    MOSUNNY   66  32  28 SE3       30.18F
HURON          SUNNY     64  40  41 SW5       30.16
CHAMBERLAIN    MOSUNNY   68  41  36 SE8G18    30.15F
MITCHELL       SUNNY     67  42  40 MISG      30.17F
YANKTON        SUNNY     66  34  30 VRB6      30.18F
$$

ABBREVIATIONS USED IN REMARKS
   TC - TEMPERATURE IN CELSIUS
  WCI - WIND CHILL INDEX
   HX - HEAT INDEX
  VSB - VISIBILITY





USA.gov is the U.S. government's official web portal to all federal, state and local government web resources and services.